EWG9971 EDDP-EDDS

Flight info

Callsign EWG9971
Flight time 1h 28m
Altitude 22000
Route NEVKO2Q NEVKO STAYINFO1/0100 DCT NEVKO Q243 BAMKI Z94 GORKO T726 LBU
Aircraft A319/M-SDE3FGHIRWY/LB1

Departure

Time 2026-05-08 06:49
Airport Leipzig/Halle Airport (EDDP)

Arrival

Time 2026-05-08 08:17
Airport Stuttgart Airport (EDDS)
Time Latitude Longitude Altitude Speed Heading
2026-05-08 06:37 51.41993 12.21452 436 ft 0 kts 15°
2026-05-08 06:46 51.41994 12.21453 436 ft 1 kts 15°
2026-05-08 06:46 51.42052 12.21477 431 ft 14 kts
2026-05-08 06:46 51.42105 12.21334 432 ft 19 kts 283°
2026-05-08 06:46 51.42141 12.21091 427 ft 25 kts 284°
2026-05-08 06:47 51.42281 12.21016 432 ft 25 kts 15°
2026-05-08 06:47 51.42456 12.21093 433 ft 28 kts 15°
2026-05-08 06:47 51.42655 12.21184 436 ft 32 kts 15°
2026-05-08 06:47 51.42858 12.21272 427 ft 32 kts 21°
2026-05-08 06:48 51.43023 12.21502 430 ft 33 kts 46°
2026-05-08 06:48 51.43140 12.21852 437 ft 53 kts 84°
2026-05-08 06:48 51.43182 12.22789 437 ft 114 kts 85°
2026-05-08 06:48 51.43258 12.24310 571 ft 152 kts 85°
2026-05-08 06:49 51.43329 12.25966 1357 ft 144 kts 85°
2026-05-08 06:49 51.43388 12.27564 1967 ft 152 kts 85°
2026-05-08 06:49 51.43448 12.29360 2439 ft 170 kts 86°
2026-05-08 06:49 51.43524 12.31353 2915 ft 190 kts 85°
2026-05-08 06:50 51.43626 12.33613 3392 ft 216 kts 85°
2026-05-08 06:50 51.43757 12.36154 3989 ft 241 kts 85°
2026-05-08 06:50 51.43906 12.38941 4738 ft 257 kts 85°
2026-05-08 06:50 51.43998 12.41837 5472 ft 264 kts 91°
2026-05-08 06:51 51.43840 12.44784 6179 ft 268 kts 99°
2026-05-08 06:51 51.43480 12.47756 6899 ft 274 kts 102°
2026-05-08 06:51 51.43252 12.49744 7360 ft 275 kts 97°
2026-05-08 06:51 51.43248 12.52855 7805 ft 277 kts 86°
2026-05-08 06:52 51.43194 12.55950 8245 ft 279 kts 94°
2026-05-08 06:52 51.43040 12.59007 8616 ft 282 kts 95°
2026-05-08 06:52 51.42874 12.62143 8868 ft 281 kts 95°
2026-05-08 06:52 51.42704 12.65287 9083 ft 285 kts 95°
2026-05-08 06:53 51.42524 12.68455 9154 ft 283 kts 95°
2026-05-08 06:53 51.42347 12.71607 9156 ft 287 kts 95°
2026-05-08 06:53 51.42179 12.74790 9155 ft 287 kts 95°
2026-05-08 06:53 51.42002 12.77979 9155 ft 290 kts 95°
2026-05-08 06:54 51.41832 12.81167 9160 ft 287 kts 95°
2026-05-08 06:54 51.41663 12.84356 9148 ft 287 kts 95°
2026-05-08 06:54 51.41485 12.87556 9155 ft 289 kts 95°
2026-05-08 06:54 51.40982 12.90637 9151 ft 287 kts 118°
2026-05-08 06:55 51.39693 12.93027 9154 ft 286 kts 146°
2026-05-08 06:55 51.37875 12.94222 9156 ft 284 kts 173°
2026-05-08 06:55 51.35926 12.93966 9156 ft 283 kts 200°
2026-05-08 06:55 51.35552 12.93736 9156 ft 283 kts 205°
2026-05-08 06:56 51.34308 12.92376 9153 ft 282 kts 226°
2026-05-08 06:56 51.33290 12.89685 9155 ft 282 kts 253°
2026-05-08 06:56 51.33163 12.86622 9154 ft 283 kts 281°
2026-05-08 06:56 51.33809 12.83606 9166 ft 282 kts 293°
2026-05-08 06:57 51.34589 12.80712 9153 ft 284 kts 294°
2026-05-08 06:57 51.35386 12.77816 9156 ft 285 kts 294°
2026-05-08 06:57 51.36167 12.74911 9154 ft 284 kts 292°
2026-05-08 06:57 51.36938 12.71997 9156 ft 284 kts 292°
2026-05-08 06:58 51.37711 12.69081 9155 ft 284 kts 292°
2026-05-08 06:58 51.38473 12.66207 9156 ft 285 kts 292°
2026-05-08 06:58 51.39244 12.63288 9155 ft 287 kts 292°
2026-05-08 06:58 51.40013 12.60358 9156 ft 286 kts 293°
2026-05-08 06:59 51.40790 12.57423 9151 ft 286 kts 293°
2026-05-08 06:59 51.41563 12.54490 9156 ft 286 kts 292°
2026-05-08 06:59 51.42340 12.51571 9155 ft 286 kts 294°
2026-05-08 06:59 51.43470 12.48986 9168 ft 285 kts 317°
2026-05-08 07:00 51.45204 12.47468 9170 ft 287 kts 345°
2026-05-08 07:00 51.47181 12.47346 9167 ft 287 kts
2026-05-08 07:00 51.49141 12.47869 9160 ft 286 kts
2026-05-08 07:00 51.51135 12.48171 9161 ft 287 kts
2026-05-08 07:01 51.53133 12.48448 9155 ft 287 kts
2026-05-08 07:01 51.55118 12.48722 9160 ft 286 kts
2026-05-08 07:01 51.57104 12.48997 9169 ft 287 kts
2026-05-08 07:01 51.59087 12.49266 9168 ft 285 kts
2026-05-08 07:02 51.61083 12.49536 9164 ft 289 kts
2026-05-08 07:02 51.63085 12.49823 9163 ft 288 kts
2026-05-08 07:02 51.65072 12.50111 9153 ft 287 kts
2026-05-08 07:02 51.67064 12.50391 9152 ft 289 kts
2026-05-08 07:03 51.69070 12.50683 9158 ft 288 kts
2026-05-08 07:03 51.70965 12.51609 9165 ft 286 kts 31°
2026-05-08 07:03 51.72397 12.53786 9165 ft 285 kts 58°
2026-05-08 07:03 51.73061 12.56765 9165 ft 284 kts 85°
2026-05-08 07:04 51.72812 12.59888 9165 ft 283 kts 112°
2026-05-08 07:04 51.71706 12.62478 9164 ft 283 kts 139°
2026-05-08 07:04 51.69984 12.63965 9163 ft 284 kts 166°
2026-05-08 07:04 51.68027 12.64033 9166 ft 283 kts 193°
2026-05-08 07:05 51.66194 12.62974 9164 ft 284 kts 202°
2026-05-08 07:05 51.64341 12.61741 9165 ft 285 kts 203°
2026-05-08 07:05 51.62536 12.60528 9165 ft 285 kts 203°
2026-05-08 07:05 51.60708 12.59291 9162 ft 285 kts 203°
2026-05-08 07:06 51.58882 12.58054 9163 ft 285 kts 202°
2026-05-08 07:06 51.57056 12.56812 9164 ft 285 kts 203°
2026-05-08 07:06 51.55229 12.55569 9165 ft 285 kts 203°
2026-05-08 07:06 51.53405 12.54328 9165 ft 285 kts 203°
2026-05-08 07:07 51.51577 12.53085 9165 ft 285 kts 203°
2026-05-08 07:07 51.49753 12.51845 9164 ft 285 kts 203°
2026-05-08 07:07 51.47927 12.50603 9165 ft 285 kts 203°
2026-05-08 07:07 51.46132 12.49254 9157 ft 285 kts 213°
2026-05-08 07:08 51.44776 12.46969 9164 ft 285 kts 240°
2026-05-08 07:08 51.44214 12.43955 9165 ft 285 kts 267°
2026-05-08 07:08 51.44275 12.40776 9166 ft 286 kts 272°
2026-05-08 07:08 51.44296 12.37588 9165 ft 286 kts 270°
2026-05-08 07:09 51.44304 12.34403 9164 ft 286 kts 272°
2026-05-08 07:09 51.44441 12.31217 9164 ft 286 kts 274°
2026-05-08 07:09 51.44607 12.28034 9165 ft 287 kts 275°
2026-05-08 07:09 51.44775 12.24848 9165 ft 287 kts 275°
2026-05-08 07:10 51.44945 12.21657 9165 ft 287 kts 275°
2026-05-08 07:10 51.45115 12.18469 9165 ft 287 kts 275°
2026-05-08 07:10 51.45285 12.15279 9165 ft 287 kts 275°
2026-05-08 07:10 51.45455 12.12090 9165 ft 288 kts 275°
2026-05-08 07:11 51.45625 12.08894 9165 ft 287 kts 275°
2026-05-08 07:11 51.45837 12.05701 9159 ft 288 kts 282°
2026-05-08 07:11 51.46666 12.02848 9165 ft 288 kts 309°
2026-05-08 07:11 51.48217 12.00872 9163 ft 287 kts 336°
2026-05-08 07:12 51.50179 12.00231 9162 ft 286 kts
2026-05-08 07:12 51.52075 12.01078 9165 ft 285 kts 31°
2026-05-08 07:12 51.53504 12.03173 9165 ft 284 kts 57°
2026-05-08 07:12 51.54193 12.06144 9164 ft 282 kts 85°
2026-05-08 07:13 51.53967 12.09213 9166 ft 282 kts 109°
2026-05-08 07:13 51.53243 12.12132 9166 ft 282 kts 114°
2026-05-08 07:13 51.52463 12.15032 9165 ft 283 kts 114°
2026-05-08 07:13 51.51674 12.17930 9165 ft 283 kts 114°
2026-05-08 07:14 51.50880 12.20826 9165 ft 284 kts 114°
2026-05-08 07:14 51.50084 12.23725 9165 ft 284 kts 114°
2026-05-08 07:14 51.49286 12.26620 9165 ft 284 kts 114°
2026-05-08 07:14 51.48486 12.29515 9165 ft 284 kts 114°
2026-05-08 07:15 51.47687 12.32407 9165 ft 284 kts 114°
2026-05-08 07:15 51.46885 12.35305 9165 ft 284 kts 114°
2026-05-08 07:15 51.46083 12.38198 9165 ft 284 kts 114°
2026-05-08 07:15 51.45278 12.41092 9163 ft 285 kts 115°
2026-05-08 07:16 51.44136 12.43657 9160 ft 285 kts 139°
2026-05-08 07:16 51.42403 12.45126 9163 ft 285 kts 166°
2026-05-08 07:16 51.40431 12.45312 9169 ft 285 kts 182°
2026-05-08 07:16 51.38467 12.45635 9169 ft 285 kts 168°
2026-05-08 07:17 51.36502 12.45953 9165 ft 285 kts 182°
2026-05-08 07:17 51.34522 12.45785 9164 ft 285 kts 184°
2026-05-08 07:17 51.32542 12.45578 9164 ft 285 kts 184°
2026-05-08 07:17 51.30567 12.45365 9165 ft 285 kts 184°
2026-05-08 07:18 51.28591 12.45151 9165 ft 285 kts 184°
2026-05-08 07:18 51.26611 12.44934 9164 ft 285 kts 184°
2026-05-08 07:18 51.24634 12.44718 9164 ft 285 kts 184°
2026-05-08 07:18 51.22660 12.44500 9165 ft 284 kts 184°
2026-05-08 07:19 51.20690 12.44284 9165 ft 284 kts 184°
2026-05-08 07:19 51.18715 12.44067 9165 ft 284 kts 184°
2026-05-08 07:19 51.16766 12.43581 9158 ft 284 kts 200°
2026-05-08 07:19 51.15133 12.41873 9165 ft 283 kts 227°
2026-05-08 07:20 51.14168 12.39169 9166 ft 283 kts 255°
2026-05-08 07:20 51.14084 12.36063 9162 ft 284 kts 282°
2026-05-08 07:20 51.14901 12.33233 9165 ft 284 kts 309°
2026-05-08 07:20 51.16443 12.31297 9165 ft 285 kts 336°
2026-05-08 07:21 51.18374 12.30682 9165 ft 286 kts
2026-05-08 07:21 51.20278 12.31529 9165 ft 287 kts 29°
2026-05-08 07:21 51.21971 12.33219 9164 ft 288 kts 32°
2026-05-08 07:21 51.23793 12.34533 9166 ft 288 kts 20°
2026-05-08 07:22 51.25672 12.35628 9164 ft 288 kts 20°
2026-05-08 07:22 51.27551 12.36712 9164 ft 287 kts 20°
2026-05-08 07:22 51.29431 12.37797 9164 ft 287 kts 20°
2026-05-08 07:22 51.31307 12.38883 9165 ft 287 kts 20°
2026-05-08 07:23 51.33181 12.39969 9165 ft 287 kts 20°
2026-05-08 07:23 51.35007 12.41183 9165 ft 287 kts 24°
2026-05-08 07:23 51.36835 12.42474 9165 ft 287 kts 24°
2026-05-08 07:23 51.38659 12.43767 9165 ft 287 kts 24°
2026-05-08 07:24 51.40488 12.45066 9165 ft 287 kts 24°
2026-05-08 07:24 51.42309 12.46361 9165 ft 287 kts 24°
2026-05-08 07:24 51.44105 12.47749 9157 ft 287 kts 33°
2026-05-08 07:24 51.45542 12.49989 9726 ft 290 kts 50°
2026-05-08 07:25 51.46856 12.52460 10696 ft 292 kts 50°
2026-05-08 07:25 51.48174 12.54962 11606 ft 296 kts 50°
2026-05-08 07:25 51.50869 12.60099 13372 ft 305 kts 49°
2026-05-08 07:26 51.52244 12.62725 14257 ft 309 kts 49°
2026-05-08 07:26 51.53635 12.65384 15097 ft 313 kts 49°
2026-05-08 07:26 51.55044 12.68082 15909 ft 317 kts 49°
2026-05-08 07:26 51.56464 12.70826 16698 ft 322 kts 51°
2026-05-08 07:27 51.57494 12.74049 17424 ft 330 kts 74°
2026-05-08 07:27 51.57693 12.77740 18159 ft 335 kts 92°
2026-05-08 07:27 51.57525 12.81495 18911 ft 339 kts 95°
2026-05-08 07:27 51.57325 12.85295 19641 ft 343 kts 95°
2026-05-08 07:28 51.57107 12.89127 20354 ft 346 kts 97°
2026-05-08 07:28 51.56392 12.92777 20994 ft 351 kts 119°
2026-05-08 07:28 51.54861 12.95819 21638 ft 353 kts 141°
2026-05-08 07:28 51.52739 12.97795 22046 ft 354 kts 162°
2026-05-08 07:29 51.50336 12.98439 22148 ft 351 kts 182°
2026-05-08 07:29 51.47872 12.98203 22169 ft 364 kts 186°
2026-05-08 07:29 51.45270 12.97855 22165 ft 385 kts 186°
2026-05-08 07:29 51.42551 12.97480 22166 ft 395 kts 186°
2026-05-08 07:30 51.39801 12.97098 22165 ft 398 kts 186°
2026-05-08 07:30 51.37037 12.96711 22165 ft 399 kts 186°
2026-05-08 07:30 51.34274 12.96322 22165 ft 399 kts 186°
2026-05-08 07:30 51.31517 12.95743 22159 ft 399 kts 196°
2026-05-08 07:31 51.28966 12.94075 22164 ft 395 kts 213°
2026-05-08 07:31 51.26855 12.91315 22164 ft 392 kts 230°
2026-05-08 07:31 51.25317 12.87761 22168 ft 390 kts 241°
2026-05-08 07:31 51.23934 12.84041 22165 ft 390 kts 241°
2026-05-08 07:32 51.22553 12.80314 22165 ft 390 kts 241°
2026-05-08 07:32 51.21172 12.76586 22168 ft 390 kts 240°
2026-05-08 07:32 51.19788 12.72861 22168 ft 390 kts 240°
2026-05-08 07:32 51.18398 12.69143 22167 ft 390 kts 240°
2026-05-08 07:33 51.17026 12.65486 22167 ft 390 kts 240°
2026-05-08 07:33 51.15634 12.61784 22168 ft 389 kts 240°
2026-05-08 07:33 51.14301 12.58040 22164 ft 388 kts 246°
2026-05-08 07:33 51.13328 12.54038 22166 ft 387 kts 252°
2026-05-08 07:34 51.12461 12.49983 22165 ft 387 kts 252°
2026-05-08 07:34 51.11582 12.45923 22166 ft 387 kts 252°
2026-05-08 07:34 51.10693 12.41867 22167 ft 388 kts 251°
2026-05-08 07:34 51.09803 12.37817 22166 ft 388 kts 251°
2026-05-08 07:35 51.09215 12.35140 22166 ft 388 kts 251°
2026-05-08 07:35 51.08327 12.31090 22164 ft 388 kts 251°
2026-05-08 07:35 51.07438 12.27045 22163 ft 388 kts 251°
2026-05-08 07:35 51.06547 12.23003 22163 ft 388 kts 251°
2026-05-08 07:36 51.05644 12.18905 22163 ft 388 kts 251°
2026-05-08 07:36 51.04763 12.14910 22164 ft 388 kts 251°
2026-05-08 07:36 51.03868 12.10865 22166 ft 388 kts 251°
2026-05-08 07:36 51.02970 12.06827 22166 ft 388 kts 251°
2026-05-08 07:37 51.02070 12.02788 22164 ft 388 kts 251°
2026-05-08 07:37 51.01170 11.98757 22165 ft 387 kts 251°
2026-05-08 07:37 51.00260 11.94677 22165 ft 387 kts 251°
2026-05-08 07:37 50.99370 11.90699 22168 ft 387 kts 251°
2026-05-08 07:38 50.98468 11.86671 22168 ft 387 kts 251°
2026-05-08 07:38 50.97565 11.82652 22170 ft 387 kts 251°
2026-05-08 07:38 50.96659 11.78630 22169 ft 387 kts 251°
2026-05-08 07:38 50.95752 11.74611 22167 ft 387 kts 251°
2026-05-08 07:39 50.94847 11.70595 22167 ft 387 kts 251°
2026-05-08 07:39 50.93939 11.66576 22167 ft 387 kts 251°
2026-05-08 07:39 50.93031 11.62563 22165 ft 387 kts 251°
2026-05-08 07:39 50.92125 11.58550 22166 ft 387 kts 251°
2026-05-08 07:40 50.91216 11.54541 22165 ft 387 kts 250°
2026-05-08 07:40 50.90303 11.50531 22162 ft 386 kts 250°
2026-05-08 07:40 50.89387 11.46534 22162 ft 387 kts 250°
2026-05-08 07:40 50.88467 11.42532 22162 ft 387 kts 250°
2026-05-08 07:41 50.87543 11.38529 22162 ft 387 kts 250°
2026-05-08 07:41 50.86625 11.34535 22164 ft 387 kts 250°
2026-05-08 07:41 50.85531 11.30650 22165 ft 387 kts 241°
2026-05-08 07:41 50.84030 11.27123 22168 ft 387 kts 233°
2026-05-08 07:42 50.82387 11.23745 22171 ft 387 kts 233°
2026-05-08 07:42 50.80742 11.20369 22172 ft 387 kts 233°
2026-05-08 07:42 50.79099 11.16992 22173 ft 387 kts 233°
2026-05-08 07:42 50.77458 11.13622 22174 ft 387 kts 233°
2026-05-08 07:43 50.75812 11.10252 22173 ft 387 kts 233°
2026-05-08 07:43 50.74168 11.06888 22174 ft 387 kts 233°
2026-05-08 07:43 50.72490 11.03562 22172 ft 388 kts 229°
2026-05-08 07:43 50.70518 11.00650 22173 ft 389 kts 219°
2026-05-08 07:44 50.68313 10.98173 22176 ft 389 kts 216°
2026-05-08 07:44 50.66090 10.95729 22174 ft 389 kts 216°
2026-05-08 07:44 50.63896 10.93325 22179 ft 389 kts 216°
2026-05-08 07:44 50.61641 10.90861 22175 ft 389 kts 216°
2026-05-08 07:45 50.59417 10.88430 22176 ft 389 kts 216°
2026-05-08 07:45 50.57217 10.86027 22174 ft 389 kts 216°
2026-05-08 07:45 50.54990 10.83599 22174 ft 389 kts 216°
2026-05-08 07:45 50.52762 10.81178 22170 ft 389 kts 216°
2026-05-08 07:46 50.50535 10.78757 22170 ft 389 kts 216°
2026-05-08 07:46 50.48311 10.76337 22168 ft 389 kts 216°
2026-05-08 07:46 50.46087 10.73914 22167 ft 389 kts 216°
2026-05-08 07:46 50.43868 10.71496 22166 ft 389 kts 216°
2026-05-08 07:47 50.41645 10.69077 22166 ft 389 kts 216°
2026-05-08 07:47 50.39425 10.66665 22164 ft 388 kts 216°
2026-05-08 07:47 50.37204 10.64253 22163 ft 388 kts 216°
2026-05-08 07:47 50.34985 10.61848 22161 ft 388 kts 216°
2026-05-08 07:48 50.32756 10.59440 22160 ft 388 kts 216°
2026-05-08 07:48 50.30532 10.57050 22161 ft 388 kts 216°
2026-05-08 07:48 50.28306 10.54667 22159 ft 388 kts 216°
2026-05-08 07:48 50.26074 10.52279 22158 ft 388 kts 216°
2026-05-08 07:49 50.23898 10.49806 22154 ft 387 kts 222°
2026-05-08 07:49 50.22011 10.46826 22153 ft 385 kts 232°
2026-05-08 07:49 50.20490 10.43392 22154 ft 384 kts 240°
2026-05-08 07:49 50.19108 10.39823 22153 ft 385 kts 240°
2026-05-08 07:50 50.17717 10.36258 22151 ft 384 kts 239°
2026-05-08 07:50 50.16320 10.32700 22151 ft 385 kts 239°
2026-05-08 07:50 50.14919 10.29149 22151 ft 385 kts 239°
2026-05-08 07:50 50.13514 10.25594 22153 ft 385 kts 239°
2026-05-08 07:51 50.12110 10.22045 22155 ft 385 kts 239°
2026-05-08 07:51 50.10707 10.18498 22157 ft 384 kts 239°
2026-05-08 07:51 50.09301 10.14953 22158 ft 384 kts 239°
2026-05-08 07:51 50.07714 10.11675 22155 ft 386 kts 229°
2026-05-08 07:52 50.05721 10.08870 22155 ft 388 kts 218°
2026-05-08 07:52 50.03384 10.06649 22156 ft 390 kts 209°
2026-05-08 07:52 50.01010 10.04717 22158 ft 390 kts 209°
2026-05-08 07:52 49.98578 10.02732 22159 ft 390 kts 209°
2026-05-08 07:53 49.96207 10.00795 22160 ft 390 kts 209°
2026-05-08 07:53 49.93808 9.98835 22159 ft 390 kts 210°
2026-05-08 07:53 49.91374 9.96844 22159 ft 390 kts 210°
2026-05-08 07:53 49.89004 9.94908 22159 ft 390 kts 210°
2026-05-08 07:54 49.86603 9.92951 22155 ft 390 kts 209°
2026-05-08 07:54 49.84198 9.90998 22155 ft 390 kts 209°
2026-05-08 07:54 49.81799 9.89054 22153 ft 389 kts 209°
2026-05-08 07:54 49.79405 9.87113 21764 ft 387 kts 209°
2026-05-08 07:55 49.77037 9.85193 21339 ft 382 kts 209°
2026-05-08 07:55 49.74701 9.83301 20913 ft 378 kts 209°
2026-05-08 07:55 49.72278 9.81762 20488 ft 377 kts 199°
2026-05-08 07:55 49.69716 9.80923 20122 ft 377 kts 188°
2026-05-08 07:56 49.67102 9.80787 19776 ft 377 kts 180°
2026-05-08 07:56 49.64488 9.80921 19425 ft 375 kts 180°
2026-05-08 07:56 49.61887 9.81049 19074 ft 372 kts 180°
2026-05-08 07:56 49.59426 9.81457 18739 ft 372 kts 172°
2026-05-08 07:57 49.56885 9.82150 18387 ft 370 kts 171°
2026-05-08 07:57 49.54358 9.82849 18035 ft 368 kts 171°
2026-05-08 07:57 49.51849 9.83551 17687 ft 366 kts 171°
2026-05-08 07:57 49.49349 9.84249 17336 ft 364 kts 171°
2026-05-08 07:58 49.46867 9.84937 16986 ft 362 kts 171°
2026-05-08 07:58 49.44392 9.85625 16635 ft 360 kts 171°
2026-05-08 07:58 49.41927 9.86308 16285 ft 359 kts 171°
2026-05-08 07:58 49.39478 9.86981 15934 ft 357 kts 172°
2026-05-08 07:59 49.37033 9.87646 15584 ft 355 kts 172°
2026-05-08 07:59 49.34609 9.88305 15235 ft 353 kts 172°
2026-05-08 07:59 49.32191 9.88964 14881 ft 352 kts 172°
2026-05-08 07:59 49.29788 9.89623 14532 ft 350 kts 172°
2026-05-08 08:00 49.27403 9.90281 14183 ft 348 kts 172°
2026-05-08 08:00 49.25023 9.90938 13831 ft 346 kts 172°
2026-05-08 08:00 49.22659 9.91590 13482 ft 345 kts 172°
2026-05-08 08:00 49.20299 9.92234 13130 ft 343 kts 173°
2026-05-08 08:01 49.17936 9.92470 12779 ft 339 kts 184°
2026-05-08 08:01 49.15620 9.92000 12428 ft 334 kts 195°
2026-05-08 08:01 49.13431 9.90884 12052 ft 330 kts 206°
2026-05-08 08:01 49.11360 9.89395 11620 ft 328 kts 207°
2026-05-08 08:02 49.09316 9.87919 11196 ft 326 kts 207°
2026-05-08 08:02 49.07264 9.86442 10777 ft 325 kts 207°
2026-05-08 08:02 49.05221 9.84976 10351 ft 324 kts 207°
2026-05-08 08:02 49.03187 9.83516 9925 ft 322 kts 207°
2026-05-08 08:03 49.01175 9.82073 9595 ft 313 kts 206°
2026-05-08 08:03 48.99275 9.80716 9472 ft 299 kts 206°
2026-05-08 08:03 48.97427 9.79396 9336 ft 287 kts 206°
2026-05-08 08:03 48.95636 9.78113 9057 ft 283 kts 206°
2026-05-08 08:04 48.93864 9.76839 8698 ft 281 kts 206°
2026-05-08 08:04 48.92099 9.75573 8329 ft 280 kts 206°
2026-05-08 08:04 48.90342 9.74318 7968 ft 279 kts 206°
2026-05-08 08:04 48.88589 9.73071 7617 ft 277 kts 206°
2026-05-08 08:05 48.86861 9.71842 7339 ft 273 kts 206°
2026-05-08 08:05 48.85152 9.70628 7087 ft 268 kts 206°
2026-05-08 08:05 48.83559 9.69489 6851 ft 261 kts 206°
2026-05-08 08:05 48.81956 9.68332 6593 ft 249 kts 206°
2026-05-08 08:06 48.80434 9.67228 6343 ft 235 kts 206°
2026-05-08 08:06 48.78983 9.66172 6104 ft 228 kts 206°
2026-05-08 08:06 48.77564 9.65121 5752 ft 227 kts 208°
2026-05-08 08:06 48.76421 9.63518 5345 ft 226 kts 240°
2026-05-08 08:07 48.75866 9.61298 4957 ft 226 kts 253°
2026-05-08 08:07 48.75423 9.59015 4597 ft 225 kts 253°
2026-05-08 08:07 48.74976 9.56769 4301 ft 221 kts 253°
2026-05-08 08:07 48.74532 9.54564 4052 ft 215 kts 253°
2026-05-08 08:08 48.74103 9.52442 4003 ft 207 kts 253°
2026-05-08 08:08 48.73687 9.50369 4000 ft 205 kts 253°
2026-05-08 08:08 48.73336 9.48287 4012 ft 204 kts 257°
2026-05-08 08:08 48.73016 9.46209 4009 ft 198 kts 257°
2026-05-08 08:09 48.72715 9.44247 3781 ft 191 kts 257°
2026-05-08 08:09 48.72417 9.42290 3525 ft 186 kts 257°
2026-05-08 08:09 48.72136 9.40452 3303 ft 171 kts 257°
2026-05-08 08:09 48.71879 9.38771 3086 ft 157 kts 257°
2026-05-08 08:10 48.71640 9.37213 2881 ft 148 kts 257°
2026-05-08 08:10 48.71411 9.35718 2696 ft 144 kts 257°
2026-05-08 08:10 48.71486 9.34244 2683 ft 142 kts 295°
2026-05-08 08:10 48.71949 9.32930 2695 ft 142 kts 301°
2026-05-08 08:11 48.72468 9.31651 2696 ft 142 kts 303°
2026-05-08 08:11 48.72988 9.30378 2692 ft 142 kts 303°
2026-05-08 08:11 48.73501 9.29105 2695 ft 142 kts 302°
2026-05-08 08:11 48.73921 9.27766 2694 ft 143 kts 277°
2026-05-08 08:12 48.73829 9.26263 2693 ft 144 kts 258°
2026-05-08 08:12 48.73610 9.24791 2698 ft 143 kts 257°
2026-05-08 08:12 48.73376 9.23342 2711 ft 140 kts 256°
2026-05-08 08:12 48.73143 9.21922 2699 ft 138 kts 256°
2026-05-08 08:13 48.72909 9.20510 2700 ft 138 kts 256°
2026-05-08 08:13 48.72676 9.19104 2698 ft 138 kts 256°
2026-05-08 08:13 48.72440 9.17682 2754 ft 141 kts 255°
2026-05-08 08:13 48.72201 9.16241 2755 ft 142 kts 255°
2026-05-08 08:14 48.71962 9.14792 2746 ft 142 kts 255°
2026-05-08 08:14 48.71722 9.13340 2748 ft 141 kts 255°
2026-05-08 08:14 48.71357 9.11978 2656 ft 143 kts 226°
2026-05-08 08:14 48.70491 9.11361 2562 ft 142 kts 180°
2026-05-08 08:15 48.69559 9.11714 2465 ft 139 kts 154°
2026-05-08 08:15 48.68658 9.12342 2190 ft 143 kts 149°
2026-05-08 08:15 48.68098 9.13468 2021 ft 131 kts 109°
2026-05-08 08:15 48.67905 9.14839 1893 ft 136 kts 94°
2026-05-08 08:16 48.67930 9.16210 1746 ft 126 kts 83°
2026-05-08 08:16 48.68104 9.17491 1571 ft 122 kts 75°
2026-05-08 08:16 48.68334 9.18710 1447 ft 121 kts 74°
2026-05-08 08:16 48.68561 9.19927 1305 ft 118 kts 75°
2026-05-08 08:17 48.68779 9.21075 1259 ft 84 kts 74°
2026-05-08 08:17 48.68879 9.21633 1260 ft 42 kts 75°
2026-05-08 08:17 48.68949 9.21763 1258 ft 6 kts 290°
2026-05-08 08:17 48.68962 9.21632 1266 ft 17 kts 283°